FW8369 Weather Reports


Display with metric or nautical units.
time (UTC)temp
F
wind
direction
speed
MPH
gust
MPH
rain 1hr
in
rain 24hr
in
rain mn
in
humidity
%
barometer
mb
20260503013904 82 305 1.0 2.0 0.00 0.00 0.00 85 1011.7
20260503012903 82 283 0.0 2.0 0.00 0.00 0.00 86 1011.2
20260503012404 82 5 2.0 5.0 0.00 0.00 0.00 85 1011.3
20260503011904 82 306 1.0 2.0 0.00 0.00 0.00 85 1011.3
20260503011403 82 281 1.0 3.0 0.00 0.00 0.00 86 1011.2
20260503010904 82 291 0.0 2.0 0.00 0.00 0.00 86 1011.1
20260503010405 82 295 0.0 2.0 0.00 0.00 0.00 86 1011.0
20260503005404 82 304 1.0 2.0 0.00 0.00 0.00 86 1011.1
20260503004904 81 303 1.0 6.0 0.00 0.00 0.00 86 1010.9
20260503004404 81 297 1.0 2.0 0.00 0.00 0.00 87 1010.9
20260503003904 80 290 0.0 1.0 0.00 0.00 0.00 88 1010.8
20260503003404 80 310 1.0 2.0 0.00 0.00 0.00 88 1010.9
20260503002404 79 345 1.0 2.0 0.00 0.00 0.00 89 1010.7
20260503001904 79 21 1.0 3.0 0.00 0.00 0.00 89 1010.6
20260503001405 79 4 3.0 5.0 0.00 0.00 0.00 89 1010.7
20260503000904 79 9 1.0 3.0 0.00 0.00 0.00 89 1010.7
20260503000404 79 0 1.0 3.0 0.00 0.00 0.00 89 1010.6
20260502234904 79 341 1.0 2.0 0.00 0.00 0.00 90 1010.4
20260502234404 78 350 0.0 2.0 0.00 0.00 0.00 91 1010.4
20260502233904 78 350 0.0 2.0 0.00 0.00 0.00 91 1010.7
20260502233404 78 12 1.0 2.0 0.00 0.00 0.00 91 1010.7
20260502232904 78 9 1.0 3.0 0.00 0.00 0.00 91 1010.7
20260502232404 78 28 2.0 3.0 0.00 0.00 0.00 90 1010.6
20260502231904 78 325 1.0 2.0 0.00 0.00 0.00 90 1010.5
20260502231404 78 50 1.0 3.0 0.00 0.00 0.00 90 1010.5
20260502230904 78 326 1.0 2.0 0.00 0.00 0.00 91 1010.4
20260502230404 78 342 0.0 1.0 0.00 0.00 0.00 91 1010.2
20260502225904 78 346 0.0 0.0 0.00 0.00 0.00 91 1010.3
20260502225403 78 347 1.0 2.0 0.00 0.00 0.00 91 1010.5
20260502224904 78 330 1.0 2.0 0.00 0.00 0.00 91 1010.5
20260502223404 78 331 1.0 1.0 0.00 0.00 0.00 91 1010.5
20260502222904 77 333 1.0 1.0 0.00 0.00 0.00 91 1010.4
20260502222404 77 333 1.0 1.0 0.00 0.00 0.00 91 1010.3
20260502221403 78 335 0.0 1.0 0.00 0.00 0.00 92 1010.1
20260502220904 78 337 0.0 1.0 0.00 0.00 0.00 92 1010.2
20260502220404 77 337 0.0 1.0 0.00 0.00 0.00 92 1010.2
20260502215904 77 338 0.0 2.0 0.00 0.00 0.00 92 1010.3
20260502215404 77 335 1.0 3.0 0.00 0.00 0.00 92 1010.5
20260502214904 78 335 1.0 2.0 0.00 0.00 0.00 92 1010.5
20260502213904 78 334 0.0 2.0 0.00 0.00 0.00 91 1010.4
20260502213404 78 338 0.0 2.0 0.00 0.00 0.00 91 1010.2
20260502212904 78 331 1.0 2.0 0.00 0.00 0.00 91 1010.3
20260502212404 78 298 0.0 0.0 0.00 0.00 0.00 91 1010.1
20260502211904 78 298 0.0 0.0 0.00 0.00 0.00 91 1010.1
20260502211404 78 298 0.0 0.0 0.00 0.00 0.00 91 1010.1
20260502210904 78 298 0.0 0.0 0.00 0.00 0.00 91 1010.1
20260502210404 78 298 0.0 0.0 0.00 0.00 0.00 91 1010.0
20260502205904 78 298 0.0 0.0 0.00 0.00 0.00 91 1009.9
20260502205404 78 304 0.0 0.0 0.00 0.00 0.00 91 1010.0
20260502204904 78 285 1.0 3.0 0.00 0.00 0.00 90 1010.0
20260502204404 78 291 1.0 1.0 0.00 0.00 0.00 90 1009.9
20260502203903 78 290 1.0 3.0 0.00 0.00 0.00 90 1009.8
20260502203404 78 295 0.0 2.0 0.00 0.00 0.00 90 1009.6
20260502202904 78 289 0.0 0.0 0.00 0.00 0.00 89 1009.6
20260502201904 78 291 0.0 0.0 0.00 0.00 0.00 90 1009.5
20260502201404 78 291 0.0 0.0 0.00 0.00 0.00 90 1009.4
20260502200904 78 322 0.0 0.0 0.00 0.00 0.00 90 1009.3
20260502200404 78 322 0.0 0.0 0.00 0.00 0.00 90 1009.4
20260502194404 78 326 0.0 0.0 0.00 0.00 0.00 90 1009.2
20260502193904 78 326 0.0 0.0 0.00 0.00 0.00 90 1009.1
20260502192904 78 327 0.0 0.0 0.00 0.00 0.00 90 1009.2
20260502191905 78 329 0.0 0.0 0.00 0.00 0.00 90 1009.1
20260502191404 78 329 0.0 0.0 0.00 0.00 0.00 90 1009.2
20260502190903 78 329 0.0 0.0 0.00 0.00 0.00 90 1009.1
20260502190404 78 287 0.0 1.0 0.00 0.00 0.00 89 1009.0
20260502185404 78 287 0.0 1.0 0.00 0.00 0.00 89 1009.1
20260502184406 78 277 0.0 1.0 0.00 0.00 0.00 89 1009.4
20260502182904 78 277 0.0 0.0 0.00 0.00 0.00 88 1009.4
20260502182403 78 277 0.0 0.0 0.00 0.00 0.00 88 1009.4
20260502181904 78 277 0.0 0.0 0.00 0.00 0.00 89 1009.3
20260502180904 78 276 0.0 0.0 0.00 0.00 0.00 88 1009.4
20260502170403 78 337 0.0 0.0 0.00 0.00 0.00 90 1010.3
20260502163904 78 52 2.0 3.0 0.00 0.00 0.00 89 1010.5
20260502163404 78 335 0.0 0.0 0.00 0.00 0.00 89 1010.5
20260502162904 78 337 0.0 0.0 0.00 0.00 0.00 89 1010.5
20260502162404 78 344 0.0 0.0 0.00 0.00 0.00 89 1010.5
20260502161904 78 2 0.0 0.0 0.00 0.00 0.00 89 1010.6
20260502161404 78 20 0.0 0.0 0.00 0.00 0.00 89 1010.7
20260502160904 78 52 1.0 3.0 0.00 0.00 0.00 89 1010.6
20260502160405 79 37 0.0 2.0 0.00 0.00 0.00 88 1010.7
20260502151904 78 287 0.0 0.0 0.00 0.00 0.00 88 1011.2
20260502151404 78 287 0.0 0.0 0.00 0.00 0.00 88 1011.2
20260502150904 78 298 0.0 3.0 0.00 0.00 0.00 88 1011.0
20260502150404 78 296 0.0 2.0 0.00 0.00 0.00 89 1011.1
20260502130404 79 320 0.0 1.0 0.00 0.00 0.00 88 1010.1
20260502123404 79 268 0.0 0.0 0.00 0.00 0.00 87 1009.7
20260502122404 79 268 0.0 0.0 0.00 0.00 0.00 88 1009.6
20260502121904 79 268 0.0 1.0 0.00 0.00 0.00 88 1009.5
20260502121404 79 309 0.0 1.0 0.00 0.00 0.00 88 1009.5
20260502120904 79 343 1.0 2.0 0.00 0.00 0.00 88 1009.5
20260502120404 78 350 0.0 2.0 0.00 0.00 0.00 89 1009.5
20260502115404 78 314 0.0 3.0 0.00 0.00 0.00 88 1009.6
20260502114904 79 304 2.0 3.0 0.00 0.00 0.00 88 1009.5
20260502114404 79 330 1.0 3.0 0.00 0.00 0.00 87 1009.4
20260502113404 79 320 0.0 1.0 0.00 0.00 0.00 87 1009.3
20260502112904 79 339 0.0 0.0 0.00 0.00 0.00 86 1009.2
20260502112403 79 350 0.0 1.0 0.00 0.00 0.00 86 1009.1
20260502111904 79 347 2.0 3.0 0.00 0.00 0.00 86 1009.0
20260502111404 79 326 0.0 1.0 0.00 0.00 0.00 86 1009.1
20260502110404 80 332 0.0 1.0 0.00 0.00 0.00 86 1009.2
20260502105903 80 326 1.0 2.0 0.00 0.00 0.00 85 1009.2
20260502104904 80 1 1.0 3.0 0.00 0.00 0.00 85 1009.3
20260502104404 80 355 2.0 3.0 0.00 0.00 0.00 84 1009.3
20260502103403 80 314 0.0 1.0 0.00 0.00 0.00 85 1009.2
20260502102904 80 332 0.0 2.0 0.00 0.00 0.00 84 1009.1
20260502102404 80 333 0.0 1.0 0.00 0.00 0.00 84 1009.1
20260502101404 80 14 1.0 2.0 0.00 0.00 0.00 85 1008.9
20260502100404 80 324 0.0 2.0 0.00 0.00 0.00 86 1009.1
20260502091404 81 4 0.0 2.0 0.00 0.00 0.00 84 1008.7
20260502090405 81 301 1.0 2.0 0.00 0.00 0.00 83 1008.7
20260502071404 81 41 1.0 3.0 0.00 0.00 0.00 85 1009.7
20260502070904 80 37 1.0 3.0 0.00 0.00 0.00 85 1009.8
20260502070404 80 50 3.0 5.0 0.00 0.00 0.00 85 1009.9
20260502065904 80 66 2.0 6.0 0.00 0.00 0.00 85 1010.0
20260502065404 80 61 3.0 6.0 0.00 0.00 0.00 84 1010.0
20260502064904 81 47 1.0 6.0 0.00 0.00 0.00 83 1010.1
20260502064404 81 282 1.0 3.0 0.00 0.00 0.00 84 1010.1
20260502063404 80 29 2.0 7.0 0.00 0.00 0.00 85 1010.4
20260502062904 80 34 3.0 6.0 0.00 0.00 0.00 85 1010.4
20260502061904 80 42 5.0 9.0 0.00 0.00 0.00 84 1010.5
20260502061404 80 50 3.0 8.0 0.00 0.00 0.00 83 1010.6
20260502060404 80 13 0.0 1.0 0.00 0.00 0.00 84 1010.7
20260502055904 81 48 2.0 7.0 0.00 0.00 0.00 83 1010.7
20260502055404 81 55 0.0 3.0 0.00 0.00 0.00 83 1010.8
20260502054904 80 277 0.0 2.0 0.00 0.00 0.00 85 1010.9
20260502053903 80 41 3.0 5.0 0.00 0.00 0.00 84 1011.1
20260502053405 80 37 1.0 5.0 0.00 0.00 0.00 84 1011.2
20260502052904 80 63 3.0 5.0 0.00 0.00 0.00 84 1011.2
20260502052404 80 30 1.0 3.0 0.00 0.00 0.00 84 1011.3
20260502051904 80 39 3.0 6.0 0.00 0.00 0.00 84 1011.4
20260502051404 80 32 1.0 5.0 0.00 0.00 0.00 83 1011.5
20260502050904 81 12 0.0 3.0 0.00 0.00 0.00 84 1011.6
20260502050404 80 22 1.0 3.0 0.00 0.00 0.00 84 1011.6
20260502045904 80 40 3.0 7.0 0.00 0.00 0.00 84 1011.5
20260502045404 80 333 1.0 3.0 0.00 0.00 0.00 84 1011.6
20260502044904 80 333 2.0 3.0 0.00 0.00 0.00 84 1011.8
20260502044404 80 312 1.0 3.0 0.00 0.00 0.00 84 1011.9
20260502043404 80 333 2.0 3.0 0.00 0.00 0.00 83 1011.9
20260502042904 81 313 2.0 3.0 0.00 0.00 0.00 83 1011.9
20260502042404 81 60 3.0 6.0 0.00 0.00 0.00 83 1011.9
20260502041904 80 51 2.0 5.0 0.00 0.00 0.00 84 1012.0
20260502041403 80 316 1.0 3.0 0.00 0.00 0.00 85 1012.0
20260502040904 79 26 4.0 9.0 0.00 0.00 0.00 85 1012.1
20260502040404 80 63 5.0 12.0 0.00 0.00 0.00 84 1012.1
20260502035904 80 47 2.0 9.0 0.00 0.00 0.00 85 1012.0
20260502035404 80 61 5.0 7.0 0.00 0.00 0.00 85 1012.1
20260502034404 80 57 3.0 7.0 0.00 0.00 0.00 84 1012.2
20260502033904 80 51 2.0 6.0 0.00 0.00 0.00 84 1012.4
20260502033404 79 354 2.0 7.0 0.00 0.00 0.00 85 1012.5
20260502032904 80 54 3.0 7.0 0.00 0.00 0.00 84 1012.6
20260502032404 80 52 3.0 6.0 0.00 0.00 0.00 83 1012.6
20260502031904 80 62 3.0 6.0 0.00 0.00 0.00 83 1012.5
20260502031404 81 55 3.0 7.0 0.00 0.00 0.00 83 1012.6
20260502030904 81 58 2.0 6.0 0.00 0.00 0.00 82 1012.5
20260502030403 81 271 1.0 2.0 0.00 0.00 0.00 82 1012.6
20260502025903 80 244 0.0 3.0 0.00 0.00 0.00 85 1012.6
20260502025404 79 46 2.0 6.0 0.00 0.00 0.00 85 1012.6
20260502024904 80 56 3.0 6.0 0.00 0.00 0.00 84 1012.7
20260502024404 79 36 0.0 2.0 0.00 0.00 0.00 86 1012.8
20260502023904 79 54 1.0 5.0 0.00 0.00 0.00 86 1013.0
20260502023404 79 354 1.0 3.0 0.00 0.00 0.00 86 1013.0
20260502022904 78 357 2.0 5.0 0.00 0.00 0.00 86 1013.1
20260502021904 78 51 3.0 6.0 0.00 0.00 0.00 86 1013.0
20260502021404 78 22 2.0 6.0 0.00 0.00 0.00 87 1012.9
20260502020904 78 52 4.0 8.0 0.00 0.00 0.00 87 1012.8
20260502015904 78 58 2.0 8.0 0.00 0.00 0.00 87 1012.8
20260502014904 77 46 3.0 6.0 0.00 0.00 0.00 88 1012.7
20260502014405 77 44 3.0 7.0 0.00 0.00 0.00 88 1012.8